カタログに戻る

LEMUR-2-SOPHILUNA-X1

運用中科学SSO
NORAD 69930·PAYLOAD·🇺🇸 United States

打ち上げ Jul 7, 2026 から Vandenberg Space Force Base

Loading…

次のパス (今後24時間)

TLE

最新Source: Space-Track

元期: Sep 13, 2026, 15:48 UTC

1 69930U 26156BP  26256.65889058  .00003101  00000-0  30601-3 0  9995
2 69930  97.7483 156.0718 0007650 303.9366  56.1125 14.92690310 10199

AllMySatでLEMUR-2-SOPHILUNA-X1をリアルタイム追跡

Download on the App Store